STARLINK-32959, 63569

Orbit data source: Space-Track

STARLINK-32959, 63569 is a payload satellite owned by SpaceX/Seattle (US) in LEO that was launched on Mon, 14 Apr 2025 UTC via an FALCON 9 launch vehicle from the Air Force Eastern Test Range (AFETR). Payload-class satellites include a variety of spacecraft equipped with specific instruments for various scientific and technological missions. These include communications satellites like Starlink; space stations such as the ISS; scientific satellites like the Hubble; Earth observation satellites from companies like Planet Labs, Umbra, and HawkEye 360; GPS; miniature CubeSats for education and research; and military/defense satellites.

Loading next visibility...
Identifier
63569, 2025-076A
Orbit
LEO
Country
Flag of USUS
Related business
Manufacturer
SpaceX/Seattle
Mission
Operational Commercial Communications
Bus & Motor
STARLINK V2M, Unknown motor
Mass
730 kg wet, ~700 kg dry
Launch date (UTC)
2025-04-14 (8 months ago)
Launch vehicle
FALCON 9
Launch site
Air Force Eastern Test Range (AFETR)
Object type
Payload
Rocket body
Debris
Shape & HBR
Box + 2 Pan, 17.7 m
Radar Cross Section
33.884 m², Large (>1 m²)

Expand to show TLE details & history
Last TLE update: 14 hours ago

TLE from 14 hours ago
0 STARLINK-32959
1 63569U 25076A   25348.35008433  .00045358  00000-0  16477-2 0  9999
2 63569  43.0032  87.6249 0001358 262.6211  97.4487 15.27580678 38735
Epoch: 2025-12-14T08:24Z
TLE epoch observation values (Epoch: 2025-12-14T08:24:07.286Z)
Latitude
0.00004°
Longitude
-121.66968°
Altitude
482.944 km
Speed
7.626 km/s
True Right ascension
05h 50m 29s
True Declination
0° 00' 00"
Sunlit
Object was in full shadow at epoch
Visualization orbit readout
Latitude
Unknown
Longitude
Unknown
Altitude
Unknown
Speed
Unknown
Apparent Right ascension
Unknown
Apparent Declination
Unknown
Sunlit
N/A
Visualization observer readout
Local Sidereal Time
21:23:38
Azimuth
Unknown
Elevation
Unknown
Doppler factor
Unknown
Orbital elements
Apogee altitude
485.924 km
Perigee altitude
484.06 km
Semi-major axis
6,863.129 km
Eccentricity
0.00014
Inclination
43.0032°
RAAN
87.6249°
Arg. of periapsis
262.6211°
True anomaly
97.46413°
Mean anomaly
97.4487°
Eccentric anomaly
97.45641°
Mean motion
3.81733 °/min
Orbital period
94.31 mins
BSTAR
0.0016477
Loading maneuver chart data...
Computing Atmospheric mass density...
Loading historical data...
Loading historical data...
Loading historical data...
Loading historical data...
Loading historical data...
Loading historical data...
Loading historical data...

Documentation

Showing up to 5 results
|